This is the latest recevied weather packets stored in our database for station/object K5NWZ. If no packets are shown the sender has not sent any weather packets the latest 10 day(s).
| Time | Temp. | Humidity | Pressure | Rain* | Wind** | Luminosity | Snow |
|---|---|---|---|---|---|---|---|
| 1777858209 | 20.56° C | 24% | 1018.5 hPa | 0 mm | - | 19 W/m² | - |
| 1777857906 | 21.11° C | 24% | 1018.8 hPa | 0 mm | - | 24 W/m² | - |
| 1777857604 | 21.11° C | 24% | 1018.8 hPa | 0 mm | - | 28 W/m² | - |
| 1777857300 | 20.56° C | 25% | 1018.9 hPa | 0 mm | - | 28 W/m² | - |
| 1777856995 | 20.56° C | 25% | 1018.9 hPa | 0 mm | - | 29 W/m² | - |
| 1777856692 | 20.56° C | 25% | 1018.7 hPa | 0 mm | - | 29 W/m² | - |
| 1777856388 | 20.56° C | 25% | 1019 hPa | 0 mm | - | 29 W/m² | - |
| 1777856085 | 20.56° C | 25% | 1018.8 hPa | 0 mm | - | 32 W/m² | - |
| 1777855782 | 20.56° C | 25% | 1018.9 hPa | 0 mm | - | 36 W/m² | - |
| 1777855480 | 20.56° C | 24% | 1018.5 hPa | 0 mm | - | 38 W/m² | - |
| 1777855177 | 20.56° C | 24% | 1018.7 hPa | 0 mm | - | 44 W/m² | - |
| 1777854873 | 21.11° C | 24% | 1018.8 hPa | 0 mm | - | 48 W/m² | - |
| 1777854570 | 21.11° C | 23% | 1018.8 hPa | 0 mm | - | 55 W/m² | - |
| 1777854267 | 21.11° C | 23% | 1018.9 hPa | 0 mm | - | 60 W/m² | - |
| 1777853964 | 21.11° C | 23% | 1018.8 hPa | 0 mm | - | 64 W/m² | - |
| 1777853662 | 21.11° C | 22% | 1018.9 hPa | 0 mm | - | 68 W/m² | - |
| 1777853358 | 21.67° C | 22% | 1019 hPa | 0 mm | - | 70 W/m² | - |
| 1777853055 | 21.67° C | 22% | 1018.9 hPa | 0 mm | - | 72 W/m² | - |
| 1777852753 | 21.67° C | 21% | 1019.1 hPa | 0 mm | - | 72 W/m² | - |
| 1777852451 | 21.67° C | 22% | 1019 hPa | 0 mm | - | 75 W/m² | - |
| 1777852148 | 21.67° C | 22% | 1019.1 hPa | 0 mm | - | 70 W/m² | - |
| 1777851845 | 21.11° C | 21% | 1019.4 hPa | 0 mm | - | 65 W/m² | - |
| 1777851543 | 21.11° C | 23% | 1019 hPa | 0 mm | - | 56 W/m² | - |
| 1777851239 | 21.11° C | 23% | 1019.6 hPa | 0 mm | - | 53 W/m² | - |
| 1777850935 | 21.67° C | 23% | 1019.1 hPa | 0 mm | - | 55 W/m² | - |
* Rain latest hour (hover to see other rain measurements)
** Current wind speed in m/s (hover to see current wind gust speed)